Run Index — Frost Fatales 2020

Name Players Description Start Time End Time Bid Wars
Pre-Show Introduction Kungfufruitcup, Lena Alfi 02/23/2020 17:24:00 +0000 02/23/2020 17:32:00 +0000 No
Ape Escape 3 Any% Beuchi 02/23/2020 17:32:00 +0000 02/23/2020 19:09:40 +0000 No
Hollow Knight All Skills emray 02/23/2020 19:09:40 +0000 02/23/2020 20:39:00 +0000 No
Portal Inbounds Kojlax 02/23/2020 20:39:00 +0000 02/23/2020 21:00:00 +0000 No
Portal 2 Single Player Inbounds royalpeaches 02/23/2020 21:00:00 +0000 02/23/2020 22:52:54 +0000 Yes
Super Mario Sunshine 120 Shines Claire 02/23/2020 22:52:54 +0000 02/24/2020 02:38:03 +0000 No
Donkey Kong Country Any% AngieYuna 02/24/2020 02:38:03 +0000 02/24/2020 03:06:45 +0000 Yes
Mega Man X Any% (Buster Only) DMP 02/24/2020 03:06:45 +0000 02/24/2020 04:16:29 +0000 No
Gregory Horror Show Any% Normal Mode Pa-Sama 02/24/2020 04:16:29 +0000 02/24/2020 05:38:32 +0000 Yes
Dungeon Dice Monsters Any% (Division 1) leggystarscream 02/24/2020 05:38:32 +0000 02/24/2020 08:13:17 +0000 Yes
A Link To The Past Mystery Randomizer ZoeVermilion 02/24/2020 08:13:17 +0000 02/24/2020 11:33:04 +0000 Yes
Yu-Gi-Oh! Dark Duel Stories Any% Nicky 02/24/2020 11:33:04 +0000 02/24/2020 15:42:12 +0000 No
Earthbound Any% Glitchless Ria Skies 02/24/2020 15:42:12 +0000 02/24/2020 20:23:16 +0000 Yes
Spyro Reignited Trilogy: Spyro 1 80 Dragons SableDragonRook 02/24/2020 20:23:16 +0000 02/24/2020 22:00:31 +0000 Yes
Kirby's Adventure Any% No Abilities AirAngel 02/24/2020 22:00:31 +0000 02/24/2020 23:29:05 +0000 No
Kirby And The Amazing Mirror Any% Darksol88 02/24/2020 23:29:05 +0000 02/25/2020 00:15:07 +0000 No
Kirby Star Allies Guest Star - Mage Sisters LaurieDBunnykins 02/25/2020 00:15:07 +0000 02/25/2020 01:01:38 +0000 No
Octopath Traveler Ophilia/Cyrus/Tressa/Olberic/Primrose/Alfyn/Therion/H'Aanit LaurieDBunnykins 02/25/2020 01:01:38 +0000 02/25/2020 02:41:40 +0000 Yes
The Legend Of Zelda Any% Tetra 02/25/2020 02:41:40 +0000 02/25/2020 03:25:26 +0000 No
The Legend Of Zelda Randomizer Consternation Flags Race Demerine2, Skybilz 02/25/2020 03:25:26 +0000 02/25/2020 04:59:13 +0000 Yes
Cadence Of Hyrule Story Mode, Any% Kailaria 02/25/2020 04:59:13 +0000 02/25/2020 05:30:13 +0000 Yes
Beatmania Iidx Song Showcase Sparkover 02/25/2020 05:30:13 +0000 02/25/2020 06:12:13 +0000 Yes
Gitaroo Man Master Mode GarbitheGlitcheress 02/25/2020 06:12:13 +0000 02/25/2020 07:19:13 +0000 No
Sly Cooper And The Thievius Raccoonus Any% Cinderkit5 02/25/2020 07:19:13 +0000 02/25/2020 08:28:13 +0000 Yes
The Last Guardian Any% SableDragonRook 02/25/2020 08:28:13 +0000 02/25/2020 12:13:11 +0000 No
Final Fantasy Tactics A2: Grimoire Of The Rift Any% Nicky 02/25/2020 12:13:11 +0000 02/25/2020 16:59:59 +0000 Yes
Super Mario Bros. 2 Princess-Only Any% CrustaceanSeven 02/25/2020 16:59:59 +0000 02/25/2020 17:24:59 +0000 No
The Ottifants Any% (Easy) GarbitheGlitcheress 02/25/2020 17:24:59 +0000 02/25/2020 18:04:59 +0000 No
Vanguard Bandits Any% Empire Route - Cecilia Ending SchalaKitty 02/25/2020 18:04:59 +0000 02/25/2020 21:11:29 +0000 Yes
Youyou Kengeki Musou Main Story 100% rythin 02/25/2020 21:11:29 +0000 02/25/2020 21:43:00 +0000 No
Else Heart.Break() Any% Prigtopia 02/25/2020 21:43:00 +0000 02/25/2020 21:56:00 +0000 Yes
Minit Any% Normal Myst_Thea 02/25/2020 21:56:00 +0000 02/25/2020 22:10:00 +0000 Yes
Another Perspective Story No Wrong Wrap Myst_Thea 02/25/2020 22:10:00 +0000 02/25/2020 22:30:00 +0000 No
Cocoron Any% Karma_Dragoness 02/25/2020 22:30:00 +0000 02/25/2020 22:54:00 +0000 Yes
Hyper Light Drifter New Game - Nmg LaurieDBunnykins 02/25/2020 22:54:00 +0000 02/25/2020 23:45:00 +0000 No
The Battle Of Olympus Infinite Olives% Karma_Dragoness 02/25/2020 23:45:00 +0000 02/26/2020 00:14:00 +0000 Yes
The Immortal Any% Karma_Dragoness 02/26/2020 00:14:00 +0000 02/26/2020 00:33:19 +0000 Yes
The Legend Of Zelda Any% Second Quest Tetra 02/26/2020 00:33:19 +0000 02/26/2020 01:32:47 +0000 No
Final Fantasy Viii Any% Soph 02/26/2020 01:32:47 +0000 02/26/2020 10:12:31 +0000 Yes
Sonic Robo Blast 2 Kart Map Rotation Original Tracks AeonFrodo 02/26/2020 10:12:31 +0000 02/26/2020 11:52:31 +0000 Yes
Chulip Any% Pa-Sama 02/26/2020 11:52:31 +0000 02/26/2020 14:01:51 +0000 Yes
Azure Striker Gunvolt 2 Good Ending tinahacks 02/26/2020 14:01:51 +0000 02/26/2020 16:27:09 +0000 No
Learning With Liz Preview Ristar 100% Lizstar 02/26/2020 16:27:09 +0000 02/26/2020 17:26:09 +0000 No
Bongo Tas Showcase Lizstar 02/26/2020 17:26:09 +0000 02/26/2020 18:05:00 +0000 Yes
Spelunky All Shortcuts + Olmec Kirby703 02/26/2020 18:05:00 +0000 02/26/2020 18:42:00 +0000 No
Tetris Effect Journey (Expert) Kirby703 02/26/2020 18:42:00 +0000 02/26/2020 19:43:00 +0000 No
Buck Bumble Any% No Door Skips UndeadBlackBird 02/26/2020 19:43:00 +0000 02/26/2020 20:35:00 +0000 No
Yo! Noid 2: Game Of A Year Edition All Stages rythin 02/26/2020 20:35:00 +0000 02/26/2020 20:54:00 +0000 Yes
We Love Katamari Roll Up The Sun GarbitheGlitcheress 02/26/2020 20:54:00 +0000 02/26/2020 22:15:00 +0000 Yes
The Simpsons: Bart's House Of Weirdness Any% GliitchWiitch 02/26/2020 22:15:00 +0000 02/26/2020 22:40:00 +0000 No
Space Mouse 1 Loop ZandraVandra 02/26/2020 22:40:00 +0000 02/26/2020 23:10:00 +0000 Yes
Cosmo Tank Beat The Game ZandraVandra 02/26/2020 23:10:00 +0000 02/27/2020 00:01:00 +0000 No
Saint Hazel's Horsepital Horsin' Around KatLink 02/27/2020 00:01:00 +0000 02/27/2020 00:38:00 +0000 No
Legend Of Zelda: A Link To The Past All Dungeons (Restricted Major Glitches) kelpsey 02/27/2020 00:38:00 +0000 02/27/2020 02:13:30 +0000 Yes
Splatterhouse: Wanpaku Graffiti True Ending AirAngel 02/27/2020 02:13:30 +0000 02/27/2020 02:48:22 +0000 No
Super Locomotive Score Showcase Lizstar 02/27/2020 02:48:22 +0000 02/27/2020 03:34:56 +0000 No
Mega Man 3: The Robots Are Revolting Any% Lizstar 02/27/2020 03:34:56 +0000 02/27/2020 04:14:30 +0000 Yes
Tomb Raider: The Angel Of Darkness Any% Beckski 02/27/2020 04:14:30 +0000 02/27/2020 04:45:30 +0000 No
Weird Dreams All Dreams% GliitchWiitch 02/27/2020 04:45:30 +0000 02/27/2020 05:11:30 +0000 No
Final Fantasy Xii Any% (Pc) Nicky 02/27/2020 05:11:30 +0000 02/27/2020 08:42:30 +0000 No
Spyro: Year Of The Dragon 100 Egg Becci_chan 02/27/2020 08:42:30 +0000 02/27/2020 10:29:27 +0000 No
Dragon Warrior Randomizer Standard Flags Demerine2 02/27/2020 10:29:27 +0000 02/27/2020 13:01:18 +0000 Yes
Legend Of Legaia Any% Ng+ Ria Skies 02/27/2020 13:01:18 +0000 02/27/2020 17:50:00 +0000 Yes
Sonic Chaos Tails Beat The Game flying fox 02/27/2020 17:50:00 +0000 02/27/2020 18:33:00 +0000 No
Classic Sonic Trilogy Sonic, No Major Glitches flying fox 02/27/2020 18:33:00 +0000 02/27/2020 20:58:00 +0000 No
Jazz Jackrabbit 2 Lori Episodes 1-4 TreyLina 02/27/2020 20:58:00 +0000 02/27/2020 21:31:00 +0000 No
Sonic Mania Knuckles - Good Ending Ailis 02/27/2020 21:31:00 +0000 02/27/2020 22:42:00 +0000 Yes
Untitled Goose Game Any% Glitchless Amethyst 02/27/2020 22:42:00 +0000 02/27/2020 23:12:00 +0000 Yes
Undertale Tpe Glitchless LaurieDBunnykins 02/27/2020 23:12:00 +0000 02/28/2020 01:19:00 +0000 Yes
Pokemon Snap Any% MrsCandyria 02/28/2020 01:19:00 +0000 02/28/2020 01:49:00 +0000 Yes
Odin Sphere Leifthrasir Easy Any% | Gwendolyn Vs Mercedes Vs Velvet Demerine2 02/28/2020 01:49:00 +0000 02/28/2020 02:55:00 +0000 Yes
Puzzle Agent All Puzzles rinimt 02/28/2020 02:55:00 +0000 02/28/2020 03:40:00 +0000 No
Evergate Any% Controller emray 02/28/2020 03:40:00 +0000 02/28/2020 04:27:00 +0000 No
Yoshi's Woolly World Any% Rhysma 02/28/2020 04:27:00 +0000 02/28/2020 06:13:33 +0000 No
Shantae And The Pirate's Curse Any% tinahacks 02/28/2020 06:13:33 +0000 02/28/2020 07:14:33 +0000 No
Wonderboy: The Dragon's Trap Any% tinahacks 02/28/2020 07:14:33 +0000 02/28/2020 08:01:33 +0000 No
Shantae Risky's Revenge Any% tinahacks 02/28/2020 08:01:33 +0000 02/28/2020 08:39:33 +0000 No
Legaia 2: Duel Saga Any% Ria Skies 02/28/2020 08:39:33 +0000 02/28/2020 14:54:33 +0000 Yes
Overclocked Any% TreyLina 02/28/2020 14:54:33 +0000 02/28/2020 15:50:33 +0000 No
Learning With Liz Learning% Lizstar and onsite Friends 02/28/2020 15:50:33 +0000 02/28/2020 19:41:33 +0000 Yes
Final Fantasy Iv Nocw (Qol Mod) Netara 02/28/2020 19:41:33 +0000 02/28/2020 21:55:33 +0000 Yes
Super Mario Odyssey Any% kelpsey 02/28/2020 21:55:33 +0000 02/28/2020 23:26:33 +0000 No
Super Mario Land 2 Any% Glitchless pidgezero_one 02/28/2020 23:26:33 +0000 02/29/2020 00:05:33 +0000 No
Donkey Kong Country 2 Any% crismas 02/29/2020 00:05:33 +0000 02/29/2020 01:10:33 +0000 No
Pokemon Crystal Randomizer Coop Blackout Bingo ZoeVermilion, dijonketchup, leggystarscream 02/29/2020 01:10:33 +0000 02/29/2020 03:36:43 +0000 Yes
Chocobo Racing Story Mode kariohki 02/29/2020 03:36:43 +0000 02/29/2020 04:07:16 +0000 Yes
Codename Kids Next Door - Operation: V.I.D.E.O.G.A.M.E. Any% StebMcDreb 02/29/2020 04:07:16 +0000 02/29/2020 06:41:34 +0000 No
Barbie: Magic Genie Adventure Any% ZoeVermilion 02/29/2020 06:41:34 +0000 02/29/2020 06:58:35 +0000 Yes
Buzz Lightyear Of Star Command New Game+ All Bosses StebMcDreb 02/29/2020 06:58:35 +0000 02/29/2020 07:44:38 +0000 No
The Lion King Any% Easy Nichole Goodnight 02/29/2020 07:44:38 +0000 02/29/2020 08:10:03 +0000 No
Disney's 102 Dalmatians: Puppies To The Rescue All Levels (Out Of Bounds, Pc) passere 02/29/2020 08:10:03 +0000 02/29/2020 08:42:39 +0000 Yes
Fatty Bear's Birthday Surprise Any% UndeadBlackBird 02/29/2020 08:42:39 +0000 02/29/2020 08:54:19 +0000 No
Looney Tunes (Gb) All Levels WinnerBit 02/29/2020 08:54:19 +0000 02/29/2020 09:16:22 +0000 No
Ducktales Remastered Any% dijonketchup 02/29/2020 09:16:22 +0000 02/29/2020 10:07:16 +0000 Yes
Frogger's Adventures: Temple Of The Frog Any% WinnerBit 02/29/2020 10:07:16 +0000 02/29/2020 10:37:48 +0000 Yes
Frogger's Adventures 2: The Lost Wand Any% WinnerBit 02/29/2020 10:37:48 +0000 02/29/2020 11:22:03 +0000 No
The Legend Of Zelda: Ocarina Of Time Medallions, Stones, Trials (Mst) Hyphlopod 02/29/2020 11:22:03 +0000 02/29/2020 13:49:00 +0000 Yes
Super Mario Smrpg Any% pidgezero_one 02/29/2020 13:49:00 +0000 02/29/2020 16:57:10 +0000 No
Momodora: Reverie Under The Moonlight Avib (Normal) LaurieDBunnykins 02/29/2020 16:57:10 +0000 02/29/2020 17:47:10 +0000 No
The Legend Of Zelda: A Link To The Past Randomizer, Multiworld Co-Op ChelseyxLynn, EmoSaru 02/29/2020 17:47:10 +0000 02/29/2020 20:26:20 +0000 Yes
The Elder Scrolls Iv: Oblivion No Oob Ellieceraptor 02/29/2020 20:26:20 +0000 02/29/2020 21:21:25 +0000 No
Super Metroid Any% Kpdr FreyasSpirit 02/29/2020 21:21:25 +0000 02/29/2020 22:33:57 +0000 Yes
Pokemon Shield Any% emray 02/29/2020 22:33:57 +0000 03/01/2020 03:18:57 +0000 Yes
Finale The End Tech Crew 03/01/2020 03:18:57 +0000 03/01/2020 03:38:58 +0000 No

Back to Main Index

Running on Django with Python
Python code by UraniumAnchor, SMK, and jdeng
CSS by Cool Matty